GFSNE_prec_precacc12_114.txt.gz
Total_Precipitation_Accumulation
0.59 0.74 0.67 0.45 0.29 0.22 0.13 0.07 0.06 0.07 0.03 0.01 0.01 0.00 0.00 0.00 0.00 0.00 0.00 0.00 0.00 0.00 0.00 0.00 0.00 0.00 0.00 0.00 0.00 0.00 0.00 0.00 0.00 0.00 0.01 0.04 0.04 0.11
0.38 0.42 0.46 0.41 0.34 0.27 0.21 0.13 0.10 0.07 0.05 0.02 0.02 0.01 0.01 0.00 0.01 0.00 0.00 0.00 0.00 0.00 0.00 0.00 0.00 0.00 0.00 0.00 0.00 0.00 0.00 0.00 0.00 0.00 0.00 0.00 0.00 0.00
0.39 0.53 0.54 0.35 0.32 0.26 0.25 0.19 0.12 0.09 0.06 0.05 0.02 0.02 0.03 0.02 0.02 0.02 0.02 0.02 0.01 0.02 0.02 0.02 0.01 0.01 0.01 0.01 0.00 0.00 0.00 0.00 0.00 0.00 0.00 0.00 0.00 0.00
0.26 0.38 0.62 0.64 0.51 0.39 0.33 0.24 0.17 0.15 0.15 0.12 0.07 0.03 0.01 0.01 0.02 0.02 0.01 0.01 0.02 0.04 0.05 0.04 0.04 0.03 0.01 0.00 0.00 0.00 0.00 0.00 0.00 0.00 0.00 0.00 0.00 0.01
0.16 0.21 0.35 0.49 0.63 0.54 0.39 0.31 0.25 0.22 0.21 0.19 0.12 0.06 0.02 0.01 0.01 0.00 0.01 0.02 0.03 0.03 0.02 0.00 0.00 0.01 0.01 0.01 0.00 0.00 0.01 0.04 0.09 0.14 0.16 0.16 0.16 0.16
0.08 0.20 0.24 0.30 0.39 0.44 0.43 0.35 0.32 0.29 0.21 0.18 0.16 0.10 0.05 0.03 0.03 0.02 0.02 0.03 0.03 0.01 0.01 0.02 0.04 0.04 0.04 0.07 0.13 0.15 0.18 0.20 0.20 0.17 0.16 0.16 0.18 0.21
0.05 0.11 0.19 0.23 0.31 0.34 0.44 0.41 0.34 0.31 0.25 0.19 0.14 0.10 0.05 0.04 0.03 0.02 0.05 0.09 0.15 0.13 0.17 0.22 0.25 0.27 0.32 0.31 0.23 0.17 0.15 0.17 0.17 0.16 0.16 0.19 0.22 0.23
0.13 0.09 0.13 0.31 0.38 0.39 0.37 0.37 0.41 0.43 0.33 0.22 0.17 0.14 0.10 0.10 0.09 0.09 0.06 0.06 0.07 0.05 0.06 0.10 0.11 0.08 0.05 0.05 0.09 0.07 0.09 0.11 0.11 0.10 0.07 0.05 0.06 0.06
0.12 0.18 0.20 0.16 0.19 0.19 0.36 0.34 0.30 0.35 0.34 0.25 0.24 0.16 0.13 0.12 0.14 0.16 0.16 0.15 0.12 0.08 0.10 0.16 0.18 0.18 0.16 0.14 0.15 0.06 0.03 0.03 0.03 0.02 0.02 0.02 0.01 0.01
0.10 0.13 0.14 0.13 0.19 0.18 0.14 0.21 0.27 0.27 0.28 0.25 0.16 0.13 0.12 0.15 0.19 0.19 0.16 0.17 0.21 0.19 0.20 0.26 0.25 0.24 0.20 0.15 0.18 0.08 0.04 0.02 0.01 0.01 0.00 0.00 0.00 0.00
0.10 0.11 0.16 0.12 0.21 0.20 0.13 0.20 0.29 0.30 0.40 0.44 0.41 0.39 0.33 0.26 0.21 0.16 0.15 0.16 0.17 0.16 0.17 0.18 0.18 0.16 0.12 0.10 0.09 0.09 0.04 0.01 0.01 0.00 0.00 0.00 0.00 0.00
0.10 0.15 0.29 0.24 0.38 0.32 0.27 0.30 0.40 0.43 0.39 0.37 0.35 0.30 0.23 0.17 0.16 0.12 0.10 0.13 0.16 0.17 0.17 0.18 0.19 0.20 0.19 0.14 0.07 0.03 0.01 0.00 0.00 0.00 0.00 0.00 0.00 0.00
0.46 0.40 0.43 0.50 0.40 0.39 0.37 0.33 0.40 0.36 0.36 0.28 0.27 0.25 0.22 0.20 0.19 0.17 0.15 0.16 0.18 0.18 0.17 0.14 0.11 0.11 0.09 0.08 0.04 0.00 0.00 0.00 0.00 0.00 0.00 0.00 0.00 0.00
0.64 0.69 0.72 0.59 0.37 0.31 0.29 0.36 0.39 0.30 0.19 0.15 0.13 0.12 0.11 0.10 0.09 0.10 0.10 0.10 0.10 0.07 0.06 0.06 0.07 0.07 0.06 0.05 0.02 0.00 0.00 0.00 0.00 0.00 0.00 0.00 0.00 0.00
0.67 0.62 0.62 0.61 0.54 0.44 0.38 0.32 0.25 0.20 0.19 0.18 0.19 0.17 0.11 0.05 0.03 0.02 0.01 0.01 0.01 0.01 0.00 0.00 0.00 0.00 0.00 0.00 0.00 0.00 0.00 0.00 0.00 0.00 0.00 0.00 0.00 0.00
0.42 0.39 0.34 0.31 0.31 0.33 0.32 0.29 0.26 0.22 0.17 0.13 0.09 0.08 0.05 0.04 0.03 0.02 0.01 0.01 0.01 0.01 0.00 0.00 0.00 0.00 0.00 0.00 0.00 0.00 0.00 0.00 0.00 0.00 0.00 0.00 0.00 0.00
0.25 0.24 0.23 0.20 0.16 0.13 0.12 0.12 0.13 0.13 0.13 0.12 0.10 0.07 0.05 0.03 0.02 0.02 0.02 0.02 0.01 0.01 0.01 0.00 0.00 0.00 0.00 0.00 0.00 0.00 0.00 0.00 0.00 0.00 0.00 0.00 0.00 0.00
0.06 0.09 0.12 0.12 0.12 0.13 0.12 0.10 0.09 0.08 0.08 0.06 0.05 0.05 0.04 0.03 0.02 0.02 0.02 0.02 0.02 0.01 0.01 0.00 0.00 0.00 0.00 0.00 0.00 0.00 0.00 0.00 0.00 0.00 0.00 0.00 0.00 0.00
0.00 0.00 0.00 0.01 0.01 0.01 0.01 0.01 0.01 0.01 0.01 0.01 0.01 0.00 0.00 0.00 0.00 0.00 0.00 0.00 0.00 0.00 0.00 0.00 0.00 0.00 0.00 0.00 0.00 0.00 0.00 0.00 0.00 0.00 0.00 0.00 0.00 0.00
0.00 0.00 0.00 0.00 0.00 0.00 0.00 0.00 0.00 0.00 0.00 0.00 0.00 0.00 0.00 0.00 0.00 0.00 0.00 0.00 0.00 0.00 0.00 0.00 0.00 0.00 0.00 0.00 0.00 0.00 0.00 0.00 0.00 0.00 0.00 0.00 0.00 0.00
0.00 0.00 0.00 0.00 0.00 0.00 0.00 0.00 0.00 0.00 0.00 0.00 0.00 0.00 0.00 0.00 0.00 0.00 0.00 0.00 0.00 0.00 0.00 0.00 0.00 0.00 0.00 0.00 0.00 0.00 0.00 0.00 0.00 0.00 0.00 0.00 0.00 0.00
0.00 0.00 0.00 0.00 0.00 0.00 0.00 0.00 0.00 0.00 0.00 0.00 0.00 0.00 0.00 0.00 0.00 0.00 0.00 0.00 0.00 0.00 0.00 0.00 0.00 0.00 0.00 0.00 0.00 0.00 0.00 0.00 0.00 0.00 0.00 0.00 0.02 0.01
0.00 0.00 0.00 0.00 0.00 0.00 0.00 0.00 0.00 0.00 0.00 0.00 0.00 0.00 0.00 0.00 0.00 0.00 0.00 0.00 0.00 0.00 0.00 0.00 0.00 0.00 0.00 0.00 0.00 0.00 0.00 0.00 0.00 0.00 0.00 0.00 0.00 0.01

GFSNE_prec_precacc12_117.txt.gz
Total_Precipitation_Accumulation
0.44 0.60 0.59 0.42 0.29 0.23 0.18 0.18 0.21 0.21 0.07 0.02 0.02 0.02 0.01 0.01 0.00 0.00 0.00 0.00 0.00 0.00 0.00 0.00 0.00 0.00 0.00 0.00 0.00 0.00 0.00 0.00 0.00 0.00 0.01 0.04 0.05 0.11
0.25 0.29 0.38 0.38 0.35 0.30 0.26 0.21 0.21 0.21 0.15 0.03 0.04 0.03 0.02 0.01 0.01 0.00 0.00 0.00 0.00 0.00 0.00 0.00 0.00 0.00 0.00 0.00 0.00 0.00 0.00 0.00 0.00 0.00 0.00 0.00 0.00 0.00
0.32 0.45 0.47 0.32 0.31 0.26 0.25 0.22 0.18 0.18 0.17 0.10 0.05 0.06 0.05 0.03 0.03 0.02 0.03 0.03 0.01 0.01 0.01 0.02 0.01 0.01 0.01 0.01 0.00 0.00 0.00 0.00 0.00 0.00 0.00 0.00 0.00 0.00
0.22 0.34 0.59 0.63 0.51 0.39 0.34 0.26 0.20 0.19 0.20 0.18 0.14 0.11 0.05 0.03 0.03 0.02 0.02 0.02 0.03 0.04 0.05 0.04 0.04 0.03 0.01 0.00 0.00 0.00 0.00 0.00 0.00 0.00 0.00 0.00 0.00 0.01
0.10 0.16 0.30 0.47 0.63 0.54 0.42 0.35 0.27 0.24 0.24 0.25 0.19 0.15 0.11 0.05 0.03 0.01 0.01 0.02 0.04 0.03 0.02 0.00 0.00 0.00 0.00 0.00 0.00 0.00 0.01 0.03 0.09 0.13 0.15 0.16 0.17 0.17
0.06 0.18 0.17 0.22 0.36 0.43 0.45 0.39 0.37 0.33 0.27 0.27 0.28 0.20 0.12 0.07 0.07 0.04 0.04 0.04 0.04 0.02 0.02 0.01 0.01 0.01 0.01 0.04 0.08 0.12 0.15 0.18 0.17 0.14 0.11 0.11 0.13 0.16
0.01 0.06 0.15 0.22 0.28 0.35 0.44 0.44 0.38 0.34 0.31 0.28 0.28 0.24 0.13 0.07 0.06 0.05 0.10 0.10 0.12 0.08 0.11 0.14 0.16 0.19 0.24 0.23 0.17 0.12 0.10 0.10 0.09 0.08 0.08 0.13 0.14 0.12
0.10 0.05 0.09 0.28 0.38 0.42 0.40 0.41 0.46 0.48 0.40 0.30 0.26 0.25 0.17 0.15 0.12 0.14 0.15 0.15 0.11 0.06 0.06 0.09 0.10 0.08 0.06 0.05 0.08 0.04 0.03 0.04 0.04 0.03 0.03 0.02 0.02 0.01
0.14 0.16 0.15 0.14 0.19 0.20 0.41 0.44 0.38 0.41 0.41 0.34 0.33 0.24 0.21 0.19 0.23 0.25 0.22 0.15 0.09 0.06 0.11 0.17 0.16 0.16 0.15 0.15 0.15 0.06 0.03 0.02 0.03 0.03 0.03 0.03 0.02 0.01
0.14 0.11 0.13 0.12 0.19 0.18 0.13 0.20 0.29 0.32 0.34 0.31 0.26 0.20 0.14 0.16 0.23 0.21 0.20 0.28 0.30 0.24 0.23 0.28 0.26 0.25 0.20 0.16 0.20 0.09 0.05 0.04 0.03 0.02 0.02 0.01 0.00 0.00
0.22 0.16 0.16 0.12 0.23 0.24 0.15 0.20 0.28 0.29 0.41 0.47 0.44 0.42 0.38 0.33 0.31 0.31 0.38 0.38 0.32 0.23 0.23 0.25 0.23 0.21 0.18 0.14 0.14 0.15 0.06 0.03 0.01 0.01 0.00 0.00 0.00 0.00
0.26 0.18 0.26 0.20 0.33 0.22 0.12 0.11 0.18 0.24 0.21 0.21 0.25 0.28 0.32 0.35 0.37 0.30 0.31 0.37 0.38 0.36 0.30 0.27 0.27 0.25 0.24 0.19 0.11 0.08 0.04 0.03 0.02 0.01 0.00 0.00 0.00 0.00
0.51 0.42 0.36 0.35 0.25 0.28 0.26 0.20 0.33 0.33 0.36 0.30 0.31 0.30 0.26 0.25 0.27 0.29 0.27 0.30 0.33 0.31 0.32 0.26 0.20 0.19 0.16 0.14 0.11 0.08 0.04 0.02 0.01 0.00 0.00 0.00 0.00 0.00
0.70 0.73 0.82 0.68 0.45 0.40 0.39 0.50 0.52 0.39 0.23 0.19 0.18 0.17 0.13 0.13 0.14 0.16 0.21 0.24 0.25 0.24 0.26 0.24 0.20 0.22 0.21 0.20 0.16 0.12 0.07 0.02 0.00 0.00 0.00 0.00 0.00 0.00
0.78 0.78 0.79 0.78 0.72 0.64 0.61 0.57 0.49 0.40 0.35 0.32 0.31 0.26 0.16 0.09 0.08 0.07 0.08 0.11 0.15 0.20 0.25 0.28 0.27 0.25 0.19 0.13 0.09 0.06 0.02 0.00 0.00 0.00 0.00 0.00 0.00 0.00
0.44 0.45 0.46 0.46 0.46 0.49 0.48 0.47 0.45 0.43 0.39 0.34 0.29 0.25 0.18 0.13 0.12 0.10 0.09 0.08 0.07 0.08 0.07 0.07 0.07 0.07 0.06 0.04 0.02 0.01 0.00 0.00 0.00 0.00 0.00 0.00 0.00 0.00
0.24 0.24 0.25 0.24 0.24 0.24 0.25 0.26 0.27 0.27 0.26 0.25 0.22 0.19 0.15 0.11 0.09 0.07 0.07 0.07 0.07 0.07 0.06 0.04 0.02 0.01 0.01 0.00 0.01 0.00 0.00 0.00 0.00 0.00 0.00 0.00 0.00 0.00
0.06 0.09 0.12 0.13 0.14 0.17 0.18 0.18 0.17 0.16 0.15 0.13 0.11 0.10 0.09 0.08 0.06 0.04 0.03 0.03 0.03 0.02 0.02 0.01 0.00 0.00 0.00 0.00 0.00 0.00 0.00 0.00 0.00 0.00 0.00 0.00 0.00 0.00
0.00 0.00 0.00 0.01 0.01 0.01 0.01 0.02 0.03 0.04 0.04 0.04 0.03 0.02 0.01 0.00 0.00 0.00 0.00 0.00 0.00 0.00 0.00 0.00 0.00 0.00 0.00 0.00 0.00 0.00 0.00 0.00 0.00 0.00 0.00 0.00 0.00 0.00
0.00 0.00 0.00 0.00 0.00 0.00 0.00 0.00 0.00 0.00 0.00 0.00 0.00 0.00 0.00 0.00 0.00 0.00 0.00 0.00 0.00 0.00 0.00 0.00 0.00 0.00 0.00 0.00 0.00 0.00 0.00 0.00 0.00 0.00 0.00 0.00 0.00 0.00
0.00 0.00 0.00 0.00 0.00 0.00 0.00 0.00 0.00 0.00 0.00 0.00 0.00 0.00 0.00 0.00 0.00 0.00 0.00 0.00 0.00 0.00 0.00 0.00 0.00 0.00 0.00 0.00 0.00 0.00 0.00 0.00 0.00 0.00 0.00 0.00 0.00 0.00
0.00 0.00 0.00 0.00 0.00 0.00 0.00 0.00 0.00 0.00 0.00 0.00 0.00 0.00 0.00 0.00 0.00 0.00 0.00 0.00 0.00 0.00 0.00 0.00 0.00 0.00 0.00 0.00 0.00 0.00 0.00 0.00 0.00 0.00 0.00 0.00 0.01 0.01
0.00 0.00 0.00 0.00 0.00 0.00 0.00 0.00 0.00 0.00 0.00 0.00 0.00 0.00 0.00 0.00 0.00 0.00 0.00 0.00 0.00 0.00 0.00 0.00 0.00 0.00 0.00 0.00 0.00 0.00 0.00 0.00 0.00 0.00 0.00 0.00 0.00 0.01

GFSNE_prec_precacc12_123.txt.gz
Total_Precipitation_Accumulation
0.11 0.15 0.21 0.18 0.17 0.16 0.19 0.22 0.26 0.27 0.09 0.01 0.03 0.02 0.02 0.02 0.01 0.01 0.00 0.00 0.00 0.00 0.00 0.00 0.00 0.00 0.00 0.00 0.00 0.00 0.00 0.00 0.00 0.00 0.01 0.02 0.03 0.04
0.08 0.11 0.11 0.13 0.16 0.18 0.19 0.19 0.25 0.29 0.26 0.05 0.05 0.04 0.06 0.06 0.03 0.03 0.01 0.02 0.01 0.01 0.00 0.00 0.00 0.00 0.00 0.00 0.00 0.00 0.00 0.00 0.00 0.00 0.00 0.00 0.00 0.00
0.12 0.09 0.11 0.08 0.10 0.08 0.10 0.14 0.15 0.20 0.23 0.13 0.07 0.08 0.12 0.12 0.10 0.08 0.05 0.04 0.02 0.01 0.01 0.00 0.00 0.00 0.00 0.00 0.00 0.00 0.00 0.00 0.00 0.00 0.00 0.00 0.00 0.00
0.06 0.11 0.18 0.18 0.17 0.13 0.10 0.11 0.11 0.12 0.17 0.19 0.15 0.13 0.12 0.10 0.13 0.14 0.13 0.13 0.09 0.07 0.02 0.00 0.00 0.00 0.00 0.00 0.00 0.00 0.00 0.00 0.00 0.00 0.00 0.00 0.00 0.01
0.04 0.04 0.06 0.12 0.17 0.19 0.18 0.17 0.15 0.14 0.19 0.25 0.21 0.15 0.13 0.11 0.15 0.15 0.19 0.21 0.18 0.12 0.05 0.02 0.00 0.00 0.00 0.00 0.00 0.00 0.00 0.00 0.00 0.00 0.04 0.08 0.09 0.09
0.06 0.07 0.10 0.10 0.12 0.12 0.18 0.25 0.26 0.25 0.23 0.24 0.24 0.19 0.14 0.14 0.16 0.17 0.25 0.28 0.20 0.11 0.08 0.07 0.05 0.04 0.02 0.01 0.00 0.00 0.00 0.00 0.02 0.04 0.04 0.04 0.04 0.04
0.11 0.13 0.20 0.31 0.31 0.28 0.32 0.37 0.40 0.34 0.26 0.24 0.29 0.26 0.18 0.12 0.14 0.13 0.23 0.22 0.23 0.18 0.16 0.15 0.11 0.05 0.03 0.02 0.02 0.02 0.03 0.05 0.07 0.07 0.07 0.07 0.06 0.05
0.41 0.43 0.46 0.55 0.57 0.53 0.42 0.37 0.40 0.41 0.29 0.19 0.19 0.22 0.17 0.15 0.17 0.28 0.34 0.34 0.21 0.12 0.12 0.16 0.15 0.12 0.09 0.07 0.08 0.08 0.08 0.06 0.07 0.07 0.06 0.07 0.09 0.09
0.34 0.30 0.23 0.24 0.21 0.18 0.31 0.34 0.29 0.36 0.40 0.31 0.28 0.23 0.21 0.20 0.27 0.34 0.34 0.23 0.13 0.11 0.22 0.35 0.28 0.20 0.16 0.15 0.17 0.08 0.07 0.07 0.09 0.10 0.11 0.12 0.11 0.09
0.25 0.17 0.15 0.14 0.18 0.17 0.15 0.17 0.22 0.27 0.35 0.35 0.29 0.24 0.19 0.19 0.27 0.25 0.27 0.38 0.38 0.28 0.28 0.33 0.26 0.29 0.26 0.19 0.25 0.14 0.11 0.13 0.14 0.15 0.14 0.14 0.12 0.09
0.28 0.24 0.24 0.18 0.34 0.29 0.15 0.19 0.29 0.30 0.42 0.51 0.53 0.55 0.49 0.42 0.37 0.36 0.50 0.53 0.42 0.29 0.23 0.24 0.25 0.27 0.30 0.29 0.28 0.28 0.15 0.13 0.13 0.12 0.11 0.10 0.08 0.05
0.35 0.31 0.42 0.36 0.47 0.39 0.32 0.32 0.34 0.36 0.32 0.31 0.29 0.29 0.32 0.37 0.48 0.39 0.43 0.57 0.55 0.52 0.42 0.39 0.39 0.35 0.41 0.37 0.25 0.20 0.14 0.15 0.13 0.11 0.10 0.08 0.06 0.02
0.45 0.46 0.48 0.47 0.37 0.39 0.43 0.44 0.51 0.40 0.36 0.27 0.29 0.30 0.28 0.27 0.30 0.35 0.37 0.48 0.53 0.46 0.45 0.47 0.44 0.41 0.40 0.39 0.31 0.24 0.18 0.21 0.17 0.15 0.14 0.10 0.07 0.04
0.53 0.58 0.67 0.63 0.57 0.56 0.56 0.69 0.68 0.52 0.33 0.27 0.22 0.23 0.26 0.28 0.30 0.35 0.39 0.44 0.46 0.46 0.51 0.48 0.38 0.40 0.38 0.38 0.34 0.33 0.30 0.26 0.21 0.18 0.16 0.14 0.12 0.09
0.45 0.48 0.51 0.49 0.46 0.50 0.64 0.73 0.77 0.76 0.75 0.71 0.66 0.59 0.47 0.36 0.30 0.31 0.31 0.34 0.38 0.47 0.51 0.50 0.47 0.50 0.46 0.39 0.37 0.35 0.34 0.31 0.25 0.18 0.12 0.07 0.04 0.03
0.28 0.30 0.32 0.32 0.33 0.36 0.38 0.43 0.52 0.62 0.66 0.67 0.67 0.66 0.62 0.56 0.52 0.51 0.50 0.53 0.49 0.52 0.48 0.45 0.47 0.47 0.49 0.46 0.38 0.37 0.31 0.24 0.19 0.16 0.12 0.10 0.08 0.06
0.08 0.10 0.12 0.14 0.16 0.19 0.21 0.24 0.28 0.31 0.33 0.37 0.37 0.38 0.36 0.34 0.35 0.35 0.36 0.37 0.38 0.44 0.48 0.49 0.45 0.39 0.36 0.36 0.34 0.30 0.26 0.21 0.16 0.12 0.09 0.07 0.04 0.02
0.00 0.01 0.02 0.03 0.05 0.08 0.10 0.13 0.14 0.15 0.17 0.17 0.17 0.18 0.18 0.18 0.17 0.16 0.16 0.18 0.19 0.20 0.20 0.21 0.20 0.19 0.18 0.18 0.17 0.16 0.13 0.09 0.06 0.04 0.03 0.01 0.00 0.00
0.00 0.01 0.01 0.01 0.01 0.01 0.01 0.02 0.03 0.04 0.05 0.05 0.06 0.05 0.04 0.03 0.02 0.03 0.04 0.05 0.05 0.06 0.07 0.08 0.08 0.08 0.09 0.10 0.09 0.06 0.05 0.04 0.02 0.01 0.01 0.00 0.00 0.00
0.00 0.00 0.00 0.00 0.00 0.00 0.00 0.00 0.00 0.00 0.00 0.00 0.00 0.00 0.00 0.00 0.00 0.00 0.00 0.00 0.00 0.00 0.00 0.01 0.01 0.02 0.02 0.02 0.03 0.02 0.01 0.01 0.00 0.00 0.00 0.00 0.00 0.00
0.00 0.00 0.00 0.00 0.00 0.00 0.01 0.01 0.01 0.00 0.00 0.00 0.00 0.00 0.00 0.00 0.00 0.00 0.00 0.00 0.00 0.00 0.00 0.00 0.00 0.00 0.00 0.00 0.00 0.00 0.00 0.00 0.00 0.00 0.00 0.00 0.00 0.00
0.01 0.01 0.00 0.01 0.00 0.00 0.01 0.01 0.01 0.00 0.00 0.00 0.01 0.01 0.00 0.00 0.00 0.00 0.00 0.00 0.00 0.00 0.00 0.00 0.00 0.00 0.00 0.00 0.00 0.00 0.00 0.00 0.00 0.00 0.00 0.00 0.00 0.00
0.01 0.00 0.01 0.00 0.00 0.00 0.00 0.00 0.00 0.01 0.00 0.01 0.00 0.00 0.01 0.00 0.00 0.00 0.00 0.00 0.00 0.00 0.00 0.00 0.00 0.00 0.00 0.00 0.00 0.00 0.00 0.00 0.00 0.00 0.00 0.00 0.00 0.00

GFSNE_prec_precacc12_129.txt.gz
Total_Precipitation_Accumulation
0.11 0.14 0.12 0.07 0.13 0.13 0.19 0.22 0.20 0.16 0.07 0.03 0.04 0.01 0.01 0.01 0.01 0.03 0.02 0.00 0.01 0.00 0.00 0.00 0.00 0.00 0.00 0.00 0.00 0.00 0.00 0.00 0.00 0.00 0.00 0.00 0.01 0.02
0.19 0.32 0.34 0.33 0.40 0.52 0.56 0.54 0.55 0.61 0.47 0.10 0.10 0.06 0.05 0.05 0.03 0.03 0.01 0.02 0.02 0.02 0.01 0.01 0.01 0.01 0.00 0.00 0.00 0.00 0.00 0.00 0.00 0.00 0.00 0.00 0.00 0.00
0.23 0.23 0.32 0.47 0.60 0.47 0.45 0.52 0.51 0.47 0.39 0.12 0.15 0.14 0.11 0.11 0.09 0.08 0.05 0.04 0.02 0.03 0.03 0.03 0.02 0.01 0.01 0.01 0.00 0.00 0.00 0.00 0.00 0.00 0.00 0.00 0.00 0.00
0.25 0.31 0.30 0.28 0.21 0.12 0.09 0.06 0.06 0.09 0.16 0.11 0.08 0.08 0.10 0.10 0.12 0.14 0.13 0.12 0.10 0.09 0.05 0.05 0.05 0.05 0.05 0.04 0.03 0.01 0.00 0.00 0.00 0.00 0.00 0.00 0.00 0.00
0.23 0.21 0.20 0.25 0.22 0.11 0.10 0.07 0.08 0.10 0.13 0.14 0.07 0.05 0.04 0.07 0.13 0.15 0.18 0.19 0.17 0.16 0.09 0.09 0.11 0.11 0.11 0.11 0.09 0.06 0.02 0.00 0.00 0.00 0.00 0.00 0.00 0.00
0.17 0.16 0.15 0.16 0.17 0.14 0.14 0.11 0.11 0.10 0.10 0.10 0.11 0.11 0.09 0.09 0.13 0.18 0.23 0.25 0.18 0.11 0.12 0.10 0.09 0.10 0.12 0.13 0.12 0.09 0.05 0.02 0.01 0.00 0.00 0.00 0.00 0.00
0.20 0.23 0.27 0.37 0.37 0.31 0.30 0.27 0.29 0.30 0.30 0.28 0.25 0.21 0.15 0.08 0.10 0.10 0.14 0.14 0.15 0.15 0.16 0.20 0.20 0.15 0.11 0.11 0.11 0.10 0.08 0.06 0.04 0.03 0.03 0.03 0.02 0.02
0.41 0.44 0.51 0.59 0.47 0.48 0.47 0.45 0.43 0.42 0.39 0.33 0.24 0.18 0.15 0.12 0.09 0.15 0.22 0.24 0.16 0.11 0.13 0.19 0.21 0.20 0.15 0.12 0.16 0.17 0.15 0.14 0.12 0.10 0.07 0.06 0.08 0.10
0.29 0.27 0.24 0.23 0.21 0.10 0.11 0.12 0.13 0.16 0.15 0.11 0.11 0.13 0.12 0.09 0.08 0.10 0.14 0.10 0.07 0.09 0.21 0.35 0.32 0.28 0.25 0.25 0.31 0.19 0.19 0.20 0.18 0.16 0.15 0.14 0.14 0.14
0.16 0.14 0.13 0.13 0.16 0.13 0.10 0.11 0.12 0.14 0.17 0.16 0.10 0.12 0.14 0.12 0.10 0.10 0.12 0.21 0.22 0.19 0.24 0.31 0.25 0.31 0.30 0.27 0.40 0.23 0.20 0.24 0.28 0.29 0.27 0.24 0.23 0.21
0.13 0.15 0.17 0.15 0.27 0.20 0.10 0.12 0.17 0.19 0.27 0.29 0.27 0.30 0.28 0.22 0.16 0.16 0.31 0.43 0.35 0.24 0.16 0.16 0.19 0.23 0.27 0.29 0.31 0.39 0.30 0.30 0.29 0.29 0.32 0.33 0.31 0.26
0.14 0.20 0.32 0.29 0.32 0.30 0.27 0.30 0.31 0.33 0.31 0.29 0.27 0.24 0.22 0.24 0.37 0.33 0.39 0.54 0.52 0.44 0.35 0.37 0.36 0.30 0.35 0.29 0.20 0.21 0.19 0.29 0.35 0.37 0.35 0.31 0.28 0.20
0.09 0.14 0.24 0.30 0.27 0.26 0.32 0.38 0.43 0.35 0.35 0.30 0.31 0.33 0.32 0.29 0.28 0.32 0.38 0.52 0.60 0.48 0.41 0.47 0.38 0.34 0.41 0.39 0.30 0.27 0.25 0.36 0.35 0.40 0.43 0.41 0.37 0.26
0.12 0.17 0.22 0.26 0.30 0.32 0.35 0.46 0.48 0.41 0.32 0.28 0.24 0.29 0.35 0.39 0.43 0.47 0.51 0.54 0.57 0.56 0.58 0.60 0.43 0.40 0.37 0.36 0.33 0.36 0.38 0.41 0.41 0.43 0.44 0.47 0.46 0.41
0.02 0.03 0.05 0.07 0.11 0.17 0.26 0.35 0.43 0.47 0.51 0.49 0.49 0.51 0.49 0.46 0.42 0.45 0.49 0.55 0.62 0.70 0.68 0.60 0.52 0.54 0.61 0.62 0.56 0.55 0.58 0.55 0.46 0.40 0.37 0.33 0.30 0.29
0.00 0.00 0.00 0.01 0.02 0.04 0.06 0.10 0.16 0.25 0.31 0.38 0.44 0.50 0.54 0.55 0.55 0.58 0.61 0.66 0.65 0.75 0.80 0.83 0.85 0.86 0.92 0.93 0.80 0.77 0.64 0.51 0.45 0.39 0.36 0.36 0.33 0.29
0.00 0.01 0.00 0.00 0.01 0.01 0.01 0.02 0.04 0.06 0.09 0.13 0.16 0.20 0.24 0.28 0.32 0.36 0.39 0.42 0.45 0.54 0.64 0.75 0.78 0.75 0.78 0.82 0.82 0.78 0.70 0.62 0.53 0.44 0.38 0.34 0.30 0.23
0.00 0.01 0.01 0.01 0.01 0.01 0.01 0.01 0.01 0.02 0.04 0.06 0.07 0.08 0.10 0.11 0.13 0.13 0.16 0.19 0.22 0.26 0.29 0.34 0.37 0.37 0.38 0.45 0.49 0.51 0.48 0.43 0.41 0.38 0.32 0.28 0.26 0.21
0.00 0.00 0.01 0.00 0.00 0.00 0.00 0.00 0.01 0.01 0.01 0.02 0.03 0.03 0.04 0.03 0.03 0.03 0.04 0.05 0.06 0.07 0.09 0.12 0.14 0.14 0.17 0.21 0.28 0.26 0.24 0.25 0.22 0.21 0.19 0.18 0.17 0.16
0.00 0.01 0.00 0.00 0.00 0.00 0.00 0.01 0.01 0.00 0.00 0.00 0.00 0.00 0.00 0.00 0.00 0.00 0.00 0.00 0.00 0.01 0.01 0.01 0.02 0.05 0.05 0.06 0.08 0.12 0.11 0.11 0.12 0.10 0.09 0.08 0.08 0.08
0.00 0.00 0.01 0.00 0.00 0.00 0.01 0.01 0.02 0.01 0.01 0.01 0.01 0.01 0.01 0.00 0.00 0.00 0.00 0.00 0.00 0.00 0.00 0.00 0.01 0.01 0.01 0.00 0.01 0.02 0.01 0.02 0.02 0.02 0.02 0.01 0.01 0.02
0.01 0.01 0.01 0.01 0.01 0.01 0.01 0.01 0.01 0.01 0.01 0.01 0.01 0.01 0.01 0.00 0.00 0.00 0.00 0.00 0.00 0.00 0.00 0.00 0.00 0.00 0.00 0.00 0.01 0.00 0.00 0.00 0.00 0.00 0.00 0.00 0.00 0.00
0.01 0.01 0.01 0.01 0.00 0.00 0.00 0.01 0.01 0.01 0.01 0.01 0.01 0.01 0.02 0.01 0.00 0.00 0.00 0.00 0.00 0.00 0.00 0.00 0.00 0.00 0.00 0.00 0.00 0.00 0.00 0.00 0.00 0.00 0.00 0.00 0.00 0.00

GFSNE_prec_precacc12_132.txt.gz
Total_Precipitation_Accumulation
0.10 0.14 0.11 0.07 0.13 0.13 0.18 0.22 0.20 0.12 0.11 0.12 0.08 0.06 0.06 0.04 0.02 0.03 0.02 0.00 0.01 0.00 0.00 0.00 0.00 0.00 0.00 0.01 0.01 0.00 0.00 0.00 0.00 0.00 0.00 0.00 0.00 0.01
0.21 0.33 0.36 0.34 0.42 0.52 0.56 0.55 0.59 0.68 0.58 0.27 0.24 0.16 0.14 0.08 0.06 0.06 0.03 0.03 0.02 0.02 0.01 0.01 0.01 0.01 0.01 0.01 0.01 0.02 0.01 0.00 0.00 0.00 0.00 0.00 0.00 0.00
0.26 0.25 0.34 0.51 0.67 0.59 0.57 0.66 0.60 0.49 0.40 0.15 0.21 0.20 0.13 0.11 0.10 0.14 0.11 0.08 0.03 0.03 0.03 0.03 0.02 0.01 0.01 0.01 0.00 0.01 0.01 0.01 0.00 0.00 0.00 0.00 0.00 0.00
0.31 0.39 0.39 0.34 0.29 0.25 0.27 0.28 0.36 0.31 0.17 0.07 0.07 0.10 0.09 0.08 0.09 0.11 0.12 0.14 0.09 0.09 0.06 0.05 0.05 0.05 0.05 0.05 0.04 0.03 0.02 0.02 0.01 0.01 0.00 0.00 0.00 0.00
0.47 0.38 0.30 0.33 0.30 0.21 0.19 0.18 0.21 0.22 0.16 0.13 0.05 0.05 0.02 0.01 0.03 0.06 0.08 0.15 0.17 0.17 0.09 0.08 0.10 0.11 0.11 0.11 0.11 0.10 0.10 0.08 0.05 0.03 0.01 0.00 0.00 0.00
0.42 0.50 0.37 0.26 0.27 0.23 0.23 0.17 0.17 0.19 0.18 0.16 0.14 0.11 0.06 0.03 0.07 0.11 0.14 0.20 0.18 0.12 0.13 0.10 0.08 0.09 0.11 0.13 0.12 0.12 0.11 0.12 0.11 0.06 0.03 0.02 0.01 0.00
0.27 0.25 0.31 0.33 0.38 0.34 0.34 0.30 0.31 0.32 0.31 0.31 0.27 0.22 0.14 0.06 0.03 0.06 0.09 0.10 0.15 0.15 0.16 0.20 0.19 0.15 0.11 0.11 0.11 0.11 0.10 0.11 0.12 0.13 0.09 0.05 0.04 0.03
0.28 0.20 0.24 0.33 0.34 0.53 0.54 0.48 0.44 0.42 0.39 0.36 0.28 0.23 0.19 0.17 0.15 0.14 0.17 0.20 0.17 0.11 0.13 0.18 0.20 0.19 0.15 0.12 0.16 0.17 0.15 0.16 0.17 0.16 0.14 0.12 0.11 0.10
0.15 0.16 0.15 0.13 0.15 0.10 0.12 0.11 0.11 0.13 0.12 0.10 0.10 0.13 0.12 0.12 0.11 0.10 0.13 0.15 0.10 0.08 0.16 0.27 0.27 0.25 0.22 0.22 0.26 0.17 0.17 0.18 0.17 0.16 0.17 0.18 0.17 0.15
0.03 0.04 0.06 0.07 0.11 0.10 0.08 0.11 0.12 0.13 0.14 0.13 0.10 0.11 0.13 0.12 0.10 0.11 0.10 0.12 0.13 0.13 0.16 0.20 0.18 0.24 0.24 0.22 0.31 0.17 0.15 0.19 0.23 0.24 0.24 0.24 0.25 0.25
0.00 0.02 0.05 0.06 0.17 0.14 0.07 0.09 0.15 0.17 0.21 0.21 0.18 0.21 0.22 0.18 0.13 0.12 0.19 0.26 0.19 0.11 0.09 0.11 0.11 0.14 0.18 0.22 0.24 0.33 0.25 0.25 0.27 0.30 0.33 0.35 0.34 0.33
0.02 0.03 0.10 0.09 0.15 0.16 0.16 0.24 0.25 0.25 0.25 0.24 0.22 0.18 0.15 0.16 0.25 0.23 0.26 0.33 0.31 0.23 0.19 0.23 0.22 0.21 0.27 0.22 0.14 0.15 0.15 0.27 0.34 0.40 0.43 0.42 0.42 0.32
0.01 0.01 0.03 0.06 0.07 0.10 0.16 0.26 0.34 0.30 0.28 0.25 0.28 0.28 0.25 0.22 0.20 0.24 0.30 0.40 0.47 0.36 0.36 0.45 0.30 0.27 0.37 0.34 0.24 0.23 0.22 0.33 0.34 0.42 0.50 0.53 0.54 0.45
0.01 0.02 0.03 0.04 0.05 0.06 0.11 0.20 0.29 0.31 0.27 0.24 0.22 0.25 0.29 0.32 0.36 0.38 0.42 0.47 0.51 0.50 0.53 0.58 0.40 0.33 0.33 0.35 0.31 0.32 0.33 0.37 0.41 0.46 0.48 0.54 0.55 0.55
0.01 0.01 0.01 0.01 0.02 0.03 0.07 0.13 0.19 0.25 0.29 0.31 0.34 0.36 0.36 0.35 0.33 0.35 0.38 0.45 0.51 0.58 0.57 0.51 0.47 0.47 0.54 0.57 0.50 0.48 0.54 0.56 0.53 0.51 0.49 0.46 0.43 0.42
0.00 0.00 0.00 0.00 0.00 0.00 0.01 0.02 0.05 0.09 0.13 0.17 0.23 0.28 0.31 0.31 0.32 0.36 0.39 0.42 0.44 0.52 0.59 0.62 0.66 0.70 0.79 0.83 0.76 0.77 0.69 0.63 0.64 0.60 0.57 0.55 0.51 0.47
0.00 0.00 0.00 0.00 0.00 0.00 0.00 0.00 0.01 0.01 0.02 0.04 0.06 0.08 0.11 0.13 0.16 0.19 0.22 0.24 0.27 0.37 0.47 0.58 0.64 0.66 0.73 0.80 0.84 0.84 0.80 0.78 0.72 0.65 0.60 0.57 0.52 0.42
0.00 0.00 0.00 0.00 0.01 0.01 0.01 0.01 0.00 0.01 0.02 0.01 0.01 0.02 0.03 0.04 0.05 0.06 0.08 0.10 0.13 0.17 0.21 0.27 0.31 0.34 0.37 0.47 0.54 0.59 0.59 0.56 0.57 0.53 0.48 0.44 0.44 0.40
0.00 0.00 0.00 0.00 0.00 0.00 0.00 0.00 0.01 0.01 0.01 0.01 0.01 0.01 0.01 0.01 0.01 0.02 0.03 0.04 0.05 0.06 0.08 0.10 0.13 0.13 0.16 0.21 0.30 0.31 0.29 0.31 0.31 0.32 0.31 0.29 0.29 0.31
0.00 0.01 0.01 0.00 0.00 0.00 0.01 0.01 0.02 0.00 0.01 0.01 0.01 0.01 0.01 0.00 0.00 0.00 0.00 0.00 0.00 0.00 0.01 0.01 0.02 0.05 0.05 0.06 0.09 0.15 0.14 0.14 0.16 0.15 0.15 0.15 0.17 0.17
0.00 0.00 0.01 0.00 0.00 0.00 0.01 0.01 0.02 0.01 0.01 0.02 0.01 0.01 0.02 0.01 0.00 0.00 0.00 0.00 0.00 0.00 0.00 0.00 0.01 0.01 0.01 0.00 0.01 0.03 0.02 0.03 0.03 0.03 0.05 0.04 0.05 0.06
0.00 0.00 0.01 0.01 0.00 0.00 0.01 0.01 0.01 0.01 0.00 0.01 0.02 0.01 0.02 0.01 0.01 0.00 0.00 0.00 0.00 0.00 0.00 0.00 0.00 0.00 0.00 0.00 0.01 0.01 0.01 0.01 0.00 0.00 0.00 0.00 0.01 0.01
0.01 0.01 0.01 0.01 0.00 0.00 0.00 0.00 0.01 0.01 0.00 0.01 0.01 0.02 0.02 0.02 0.01 0.00 0.00 0.00 0.00 0.00 0.00 0.00 0.00 0.00 0.00 0.00 0.00 0.00 0.00 0.00 0.00 0.00 0.00 0.00 0.00 0.00

GFSNE_prec_precacc12_135.txt.gz
Total_Precipitation_Accumulation
0.07 0.10 0.09 0.08 0.12 0.14 0.18 0.19 0.16 0.11 0.10 0.12 0.09 0.07 0.07 0.05 0.02 0.04 0.02 0.00 0.01 0.00 0.00 0.00 0.00 0.00 0.01 0.01 0.01 0.00 0.00 0.00 0.00 0.00 0.00 0.00 0.00 0.00
0.23 0.28 0.31 0.32 0.40 0.52 0.55 0.54 0.57 0.66 0.57 0.27 0.25 0.17 0.13 0.07 0.05 0.08 0.05 0.05 0.04 0.04 0.02 0.01 0.01 0.01 0.01 0.01 0.02 0.02 0.03 0.03 0.01 0.00 0.00 0.00 0.00 0.00
0.24 0.25 0.35 0.50 0.66 0.60 0.58 0.67 0.61 0.49 0.40 0.16 0.22 0.22 0.13 0.10 0.08 0.10 0.10 0.07 0.05 0.06 0.04 0.03 0.02 0.02 0.02 0.02 0.01 0.01 0.02 0.06 0.09 0.08 0.05 0.01 0.00 0.00
0.37 0.37 0.37 0.32 0.28 0.27 0.35 0.47 0.54 0.48 0.38 0.24 0.17 0.14 0.10 0.07 0.05 0.04 0.03 0.03 0.03 0.03 0.07 0.08 0.06 0.06 0.06 0.05 0.05 0.04 0.03 0.03 0.05 0.07 0.08 0.05 0.02 0.00
0.63 0.46 0.36 0.38 0.35 0.26 0.23 0.26 0.32 0.41 0.37 0.25 0.12 0.11 0.04 0.01 0.01 0.02 0.03 0.03 0.04 0.08 0.08 0.10 0.12 0.12 0.12 0.11 0.11 0.10 0.11 0.10 0.09 0.09 0.09 0.08 0.05 0.02
0.65 0.64 0.54 0.44 0.41 0.41 0.35 0.33 0.32 0.31 0.25 0.23 0.19 0.16 0.10 0.07 0.07 0.07 0.07 0.05 0.05 0.05 0.09 0.08 0.07 0.07 0.11 0.12 0.12 0.12 0.11 0.13 0.16 0.16 0.16 0.15 0.12 0.10
0.93 0.61 0.62 0.69 0.65 0.51 0.61 0.61 0.42 0.31 0.41 0.45 0.39 0.26 0.17 0.09 0.05 0.05 0.05 0.04 0.04 0.05 0.06 0.10 0.12 0.12 0.10 0.10 0.10 0.10 0.10 0.11 0.12 0.15 0.16 0.17 0.18 0.17
0.89 0.78 0.68 0.64 0.50 0.57 0.56 0.56 0.55 0.43 0.43 0.45 0.36 0.28 0.20 0.19 0.16 0.12 0.11 0.14 0.13 0.06 0.05 0.08 0.11 0.13 0.10 0.09 0.15 0.13 0.11 0.14 0.15 0.15 0.16 0.16 0.17 0.18
0.59 0.53 0.51 0.45 0.37 0.28 0.30 0.30 0.28 0.27 0.21 0.15 0.16 0.17 0.13 0.12 0.10 0.09 0.11 0.13 0.11 0.07 0.09 0.14 0.15 0.17 0.18 0.20 0.25 0.16 0.15 0.16 0.14 0.14 0.16 0.18 0.19 0.20
0.05 0.07 0.10 0.14 0.18 0.19 0.15 0.14 0.15 0.17 0.17 0.13 0.09 0.09 0.10 0.11 0.10 0.09 0.08 0.10 0.10 0.11 0.16 0.16 0.10 0.11 0.13 0.16 0.27 0.15 0.13 0.15 0.18 0.19 0.18 0.16 0.17 0.23
0.00 0.01 0.01 0.00 0.04 0.05 0.02 0.03 0.06 0.08 0.15 0.17 0.12 0.12 0.13 0.11 0.09 0.10 0.15 0.20 0.15 0.09 0.09 0.13 0.09 0.09 0.09 0.12 0.16 0.26 0.21 0.21 0.20 0.22 0.25 0.27 0.29 0.33
0.00 0.01 0.02 0.01 0.02 0.01 0.01 0.03 0.05 0.09 0.12 0.12 0.14 0.15 0.12 0.11 0.16 0.16 0.21 0.26 0.26 0.18 0.15 0.18 0.14 0.13 0.15 0.11 0.08 0.10 0.11 0.22 0.29 0.34 0.37 0.37 0.39 0.33
0.00 0.01 0.00 0.01 0.00 0.00 0.01 0.02 0.06 0.08 0.11 0.12 0.12 0.14 0.16 0.16 0.16 0.18 0.22 0.28 0.33 0.28 0.28 0.30 0.17 0.18 0.26 0.22 0.15 0.16 0.16 0.25 0.27 0.34 0.42 0.49 0.53 0.47
0.01 0.01 0.01 0.00 0.00 0.00 0.00 0.01 0.03 0.05 0.07 0.08 0.10 0.14 0.15 0.19 0.24 0.26 0.31 0.33 0.36 0.35 0.36 0.42 0.30 0.26 0.27 0.27 0.24 0.24 0.24 0.28 0.32 0.38 0.42 0.52 0.56 0.61
0.01 0.01 0.00 0.00 0.00 0.00 0.00 0.00 0.01 0.02 0.04 0.06 0.09 0.13 0.16 0.19 0.20 0.22 0.26 0.32 0.38 0.43 0.44 0.41 0.38 0.37 0.44 0.47 0.41 0.37 0.41 0.42 0.39 0.41 0.45 0.49 0.51 0.52
0.00 0.00 0.00 0.00 0.00 0.00 0.00 0.00 0.00 0.00 0.02 0.04 0.06 0.08 0.11 0.13 0.15 0.18 0.19 0.21 0.23 0.30 0.40 0.46 0.48 0.51 0.58 0.64 0.60 0.60 0.52 0.50 0.53 0.53 0.55 0.59 0.58 0.58
0.00 0.00 0.00 0.00 0.00 0.00 0.00 0.00 0.00 0.00 0.01 0.01 0.01 0.02 0.03 0.05 0.06 0.08 0.10 0.11 0.13 0.17 0.22 0.30 0.37 0.41 0.48 0.55 0.60 0.63 0.61 0.63 0.62 0.60 0.58 0.60 0.62 0.57
0.00 0.00 0.00 0.00 0.00 0.00 0.00 0.00 0.00 0.00 0.01 0.01 0.01 0.01 0.01 0.01 0.01 0.01 0.02 0.03 0.05 0.08 0.10 0.13 0.17 0.19 0.22 0.31 0.38 0.45 0.47 0.48 0.53 0.52 0.49 0.47 0.52 0.54
0.00 0.00 0.00 0.00 0.00 0.00 0.00 0.00 0.01 0.01 0.00 0.00 0.01 0.01 0.01 0.00 0.00 0.00 0.00 0.00 0.01 0.02 0.03 0.05 0.06 0.06 0.08 0.12 0.22 0.26 0.25 0.29 0.31 0.33 0.33 0.32 0.34 0.40
0.00 0.01 0.00 0.00 0.00 0.00 0.01 0.01 0.01 0.00 0.01 0.01 0.00 0.01 0.01 0.01 0.00 0.00 0.00 0.00 0.00 0.00 0.01 0.01 0.02 0.04 0.03 0.04 0.06 0.14 0.16 0.15 0.16 0.16 0.17 0.18 0.21 0.23
0.00 0.00 0.01 0.00 0.00 0.00 0.01 0.01 0.02 0.01 0.01 0.01 0.01 0.01 0.02 0.01 0.00 0.00 0.00 0.00 0.00 0.00 0.00 0.00 0.02 0.02 0.01 0.01 0.02 0.05 0.05 0.07 0.05 0.05 0.07 0.06 0.07 0.10
0.00 0.00 0.01 0.01 0.00 0.00 0.00 0.00 0.01 0.00 0.00 0.01 0.01 0.01 0.02 0.02 0.01 0.00 0.00 0.00 0.00 0.00 0.00 0.00 0.00 0.00 0.01 0.02 0.03 0.03 0.03 0.04 0.02 0.02 0.02 0.02 0.02 0.03
0.00 0.00 0.01 0.01 0.00 0.00 0.00 0.00 0.01 0.01 0.00 0.01 0.01 0.01 0.02 0.02 0.01 0.01 0.00 0.00 0.00 0.00 0.00 0.00 0.00 0.00 0.00 0.01 0.02 0.02 0.02 0.02 0.01 0.01 0.01 0.01 0.01 0.01